Location: Unspecified
(51.0950°N, 12.9690°E)
Time: 15:06:59
(UTC+00:00)

BEESAT - Pass Details

Date: 26 April 2024
Orbit: 692 x 702 km, 98.5° (Epoch: 20 May)

Event Time Altitude Azimuth Distance (km) Brightness Sun altitude
Rises 21:07:45 0° 17° (NNE) 3,084 ? -20.1°
Reaches altitude 10° 21:10:02 10° 21° (NNE) 2,161 ? -20.3°
Maximum altitude 21:14:44 63° 102° (ESE) 779 ? -20.6°
Enters shadow 21:15:43 50° 154° (SSE) 885 ? -20.7°
